カタログに戻る

CZ-6A DEB

運用中SSO
NORAD 55884·DEBRIS·🇨🇳 China

打ち上げ Nov 11, 2022 から Taiyuan Satellite Launch Center

Loading…

次のパス (今後24時間)

TLE

最新Source: Space-Track

元期: Sep 14, 2026, 11:23 UTC

1 55884U 22151AAG 26257.47462263  .00001277  00000-0  66432-3 0  9998
2 55884  98.8420 260.4294 0051426  79.3972 281.2989 14.15763131183367

AllMySatでCZ-6A DEBをリアルタイム追跡

Download on the App Store